Probability
0 0 0 0 0 0 0 0 0 0 0 0 0 0 0 0 0 1 2 5 11 16 16 19 23 22 19 16 13 11 8 4 3 3 4 3 4 3 2 1 1 1 1 1 0 0 0 0 0
0 0 0 0 0 0 0 0 0 0 0 0 0 0 0 0 0 1 1 3 8 12 14 18 24 25 23 20 15 13 10 7 3 3 3 3 3 3 2 2 2 2 2 1 0 0 0 0 0
0 0 0 0 0 0 0 0 0 0 0 0 0 0 0 0 0 1 2 3 7 11 14 19 24 27 26 22 17 14 11 8 4 3 3 2 2 1 1 1 1 1 1 1 0 0 0 0 0
0 0 0 0 0 0 0 0 0 0 0 0 0 0 0 0 1 2 2 4 10 15 17 20 22 26 26 22 16 13 10 8 6 4 3 2 1 0 0 0 0 0 0 0 0 0 0 0 0
0 0 0 0 0 0 0 0 0 0 0 0 0 0 0 0 1 2 3 5 11 18 20 19 21 23 23 19 16 14 11 9 8 7 6 4 3 2 1 1 2 1 0 1 1 1 0 0 0
0 0 0 0 0 0 0 0 0 0 0 0 0 0 0 0 0 1 3 5 11 18 20 19 19 19 17 16 16 14 14 12 10 10 8 7 6 4 2 2 3 2 1 1 2 1 0 0 0
0 0 0 0 0 0 0 0 0 0 0 0 0 0 0 0 0 1 2 4 8 15 18 17 15 13 12 12 12 11 11 10 9 9 8 6 6 5 3 3 3 3 3 3 3 2 1 0 0
0 0 0 0 0 0 0 0 0 0 0 0 0 0 0 0 0 1 2 3 7 12 15 15 12 9 8 7 6 6 6 5 6 6 5 4 3 3 3 3 3 3 3 3 3 3 1 0 0
0 0 0 0 0 0 0 0 0 0 0 0 0 0 1 0 0 0 1 2 5 9 13 14 11 8 4 3 2 2 2 2 2 2 3 2 1 1 2 1 1 2 3 3 3 2 2 1 0
0 0 0 0 0 0 0 0 0 0 0 0 0 0 0 0 0 0 0 1 3 5 9 12 11 6 3 1 1 1 1 1 1 1 1 1 1 0 0 0 0 1 2 2 1 2 2 1 1
0 0 0 0 0 0 0 0 0 0 0 0 0 0 0 0 0 0 0 0 1 4 7 11 11 7 3 0 0 0 0 0 1 1 1 1 1 1 1 1 0 0 1 1 1 2 3 3 2
0 0 0 0 0 0 0 0 0 0 0 0 0 0 0 0 0 0 0 0 1 3 6 9 11 9 4 1 0 0 0 0 1 1 2 3 3 3 3 2 1 0 0 1 2 3 3 4 4
0 0 0 0 0 0 0 0 0 0 0 0 0 0 0 0 0 0 0 0 1 3 4 7 9 8 4 1 0 0 0 0 1 1 2 3 4 4 3 2 0 0 0 1 2 3 4 4 4
0 0 0 0 0 0 0 0 0 0 0 0 0 0 0 0 0 0 0 1 2 2 2 3 6 6 3 1 0 0 0 0 0 1 1 2 3 3 2 1 0 0 0 0 1 3 4 5 5
0 0 0 0 0 0 0 0 0 0 0 0 0 0 0 0 0 0 0 1 2 2 1 1 3 4 3 1 0 0 0 0 0 0 1 1 2 2 1 0 0 0 0 0 1 2 3 4 5
0 0 0 0 0 0 0 0 0 0 0 0 0 0 0 0 0 0 0 1 2 2 1 1 2 3 3 2 1 0 0 0 0 1 2 2 2 2 1 1 0 0 0 0 0 1 3 3 4
0 0 0 0 0 0 0 0 0 0 0 0 0 0 0 0 0 0 0 0 1 1 1 0 1 2 3 3 1 0 0 0 0 1 2 2 1 2 2 2 1 0 0 0 0 1 2 3 3
0 0 0 0 0 0 0 0 0 0 0 0 0 0 0 0 0 0 0 0 0 0 0 1 1 2 2 3 2 1 0 0 0 0 1 1 1 1 2 2 1 0 0 0 0 0 1 2 2
0 0 0 0 0 0 0 0 0 0 0 0 0 0 0 0 0 0 0 0 0 0 0 1 1 1 1 2 3 2 1 0 0 0 0 0 0 0 1 2 2 1 0 0 0 0 0 1 1
0 0 0 0 0 0 0 0 0 0 0 0 0 0 0 0 0 0 0 0 0 0 0 0 1 1 1 1 3 3 1 0 0 0 0 0 0 0 1 2 2 1 0 0 0 0 0 0 0
0 0 0 0 0 0 0 0 0 0 0 0 0 0 0 0 0 0 0 0 0 0 0 0 1 2 1 1 2 3 2 1 0 0 0 0 0 0 0 1 2 1 0 0 0 0 0 0 0
0 0 0 0 0 0 0 0 0 0 0 0 0 0 0 0 0 0 0 0 0 0 0 0 1 2 1 0 1 2 2 1 0 0 0 0 0 0 0 0 1 1 0 0 0 0 0 0 0
0 0 0 0 0 0 0 0 0 0 0 0 0 0 0 0 0 0 0 0 0 0 0 0 1 2 1 0 0 1 1 0 0 0 0 0 0 0 0 0 0 0 0 0 0 0 0 0 0
0 0 0 0 0 0 0 0 0 0 0 0 0 0 0 0 0 0 0 0 0 0 0 1 2 2 1 0 0 0 0 0 0 0 0 0 0 0 0 0 0 0 0 0 0 0 0 0 0
0 0 0 0 0 0 0 0 0 0 0 0 0 0 0 0 0 0 0 0 0 0 0 1 2 2 1 0 0 0 0 0 0 0 0 0 0 0 0 0 0 0 0 0 0 0 0 0 0
0 0 0 0 0 0 0 0 0 0 0 0 0 0 0 0 0 0 0 0 0 0 0 1 3 2 1 0 0 0 0 1 1 0 0 0 0 0 0 0 0 0 0 0 0 0 0 0 0
0 0 0 0 0 0 0 0 0 0 0 0 0 0 0 0 0 0 0 0 0 0 1 2 3 2 1 0 0 0 0 1 2 1 0 0 0 0 0 0 0 1 0 0 0 0 0 0 0
0 0 0 0 0 0 0 0 0 0 0 0 0 0 0 0 0 0 0 0 0 0 1 2 3 2 1 0 0 0 0 1 2 2 1 1 0 0 0 0 0 0 0 0 0 0 0 0 0
0 0 0 0 0 0 0 0 0 0 0 0 0 0 0 0 0 0 0 0 0 0 1 2 3 2 1 0 0 1 1 1 2 3 2 1 0 0 0 0 0 0 0 0 0 0 0 0 0
0 0 0 0 0 0 0 0 0 0 0 0 0 0 0 0 0 0 0 0 0 0 0 1 2 1 0 0 0 1 2 2 2 3 3 1 0 0 0 0 0 0 0 0 0 0 0 0 0
Wind_Speed
9 9 6 2 2 4 7 7 5 1 1 4 5 4 4 4 4 7 4 6 9 10 11 12 12 11 11 10 10 10 9 9 9 9 9 9 9 9 9 8 9 9 9 9 9 9 9 9 10
8 5 3 2 4 5 7 7 6 1 5 5 4 3 3 4 7 8 5 6 8 9 10 10 12 11 11 10 10 9 9 9 9 9 9 9 9 9 9 8 9 9 9 9 9 9 9 9 9
8 5 3 3 5 6 4 1 2 5 7 3 2 1 2 3 6 5 6 6 7 8 9 11 12 11 11 10 10 9 9 9 9 9 9 9 9 9 9 9 8 9 9 9 9 9 9 9 9
3 3 3 5 10 8 6 1 4 5 3 1 2 3 3 5 4 6 7 6 7 8 9 10 12 11 10 10 9 9 9 9 9 9 8 9 9 9 8 8 8 8 8 8 8 9 9 9 8
3 3 5 7 11 9 6 2 2 2 4 4 3 2 4 4 8 8 6 6 7 8 8 10 12 11 10 10 9 9 9 9 9 8 8 9 9 8 8 8 8 8 8 9 9 9 9 9 8
3 3 5 9 10 9 6 2 1 2 3 4 3 2 3 6 7 6 5 5 6 8 8 9 11 11 10 9 9 9 9 9 9 8 8 8 8 8 8 7 7 7 8 9 9 9 9 8 7
3 4 7 9 9 7 5 3 3 4 4 3 3 2 5 5 5 6 6 5 6 7 7 7 7 8 9 9 8 8 9 8 8 8 8 8 8 8 8 7 7 7 7 8 8 8 8 7 7
3 4 7 9 9 7 2 2 1 2 2 1 2 3 4 6 6 6 5 5 5 5 6 6 5 6 6 6 8 8 8 8 8 8 7 7 7 7 7 6 6 6 7 7 8 8 8 7 6
4 5 7 7 6 4 1 1 1 1 2 1 1 3 5 9 7 6 5 4 4 4 5 5 5 5 5 5 7 7 7 7 7 6 7 6 4 4 4 6 6 6 7 7 7 7 7 6 4
4 6 8 5 4 3 1 1 1 2 3 2 2 4 7 7 6 6 6 5 5 4 4 4 4 4 4 4 4 4 4 4 4 4 4 3 3 3 4 6 6 6 6 6 7 6 5 3 2
6 7 6 6 5 4 3 3 2 3 5 5 5 6 7 6 5 6 5 5 5 5 4 4 4 4 4 3 3 2 2 3 3 4 4 3 3 3 3 2 3 4 4 3 4 3 2 2 1
8 8 7 6 4 3 4 4 4 5 5 3 2 6 7 6 6 6 5 5 4 4 4 4 4 4 4 3 3 2 2 2 2 2 3 3 2 2 2 2 2 2 2 2 2 2 2 2 2
12 10 8 7 5 5 6 7 6 7 5 4 2 4 6 6 6 5 4 4 4 5 4 4 4 4 3 3 2 3 3 2 2 2 2 3 2 3 2 2 2 2 2 2 1 1 2 2 2
7 7 8 8 8 7 8 9 8 8 5 5 5 6 7 7 7 6 5 5 4 5 5 4 4 4 4 3 3 3 3 3 3 2 3 3 2 3 3 2 2 2 2 1 1 2 2 1 2
7 7 9 9 9 6 5 10 12 10 7 7 6 6 7 7 6 6 6 5 5 4 5 5 5 5 4 4 3 3 3 3 3 3 3 3 3 3 3 2 2 1 2 2 2 1 2 2 2
7 8 9 9 10 7 6 12 7 7 9 8 7 6 6 6 6 5 5 5 5 5 5 5 5 5 5 4 3 2 3 3 3 3 3 3 3 3 3 2 2 2 2 2 2 1 2 2 2
8 9 10 7 8 8 10 9 5 4 6 8 7 6 6 5 5 5 5 5 5 5 5 5 4 5 4 4 3 3 3 3 2 3 3 3 3 4 3 3 2 2 2 1 2 2 2 2 3
7 8 9 8 6 7 9 9 6 5 6 7 6 5 5 5 4 4 5 5 4 4 5 5 5 5 5 4 3 2 3 2 2 2 3 4 3 4 3 3 3 2 2 2 2 2 2 2 2
8 9 10 8 5 6 9 10 9 7 7 6 5 5 4 4 3 4 4 4 4 4 4 5 6 5 4 4 4 3 3 2 2 2 3 3 3 3 3 3 3 2 2 2 3 2 3 3 2
11 12 10 7 4 4 8 11 9 9 8 6 5 4 4 3 2 3 4 4 4 5 5 5 5 6 5 4 4 3 3 3 2 2 3 4 3 3 3 4 3 3 2 2 2 3 2 2 2
11 10 8 7 6 5 6 8 8 6 6 4 4 3 3 3 2 3 3 3 4 4 5 5 5 5 6 5 4 3 3 2 2 3 3 3 4 3 3 3 3 3 3 3 3 3 3 3 2
9 7 8 7 5 4 4 5 4 4 5 4 3 2 2 2 2 2 2 3 3 4 3 4 5 5 5 6 5 6 5 4 4 4 3 3 4 3 4 4 3 3 3 3 3 3 2 4 3
5 5 7 8 7 6 6 5 5 3 3 4 4 3 3 2 2 2 2 3 3 3 4 3 4 4 5 5 6 6 5 4 3 4 4 3 3 3 4 4 4 3 3 3 3 3 3 3 3
4 4 6 6 4 8 9 7 4 2 3 2 3 3 3 2 2 2 2 2 2 2 3 4 4 4 4 5 5 6 6 5 6 5 5 4 3 3 4 4 4 4 3 4 3 3 3 3 3
3 2 2 3 5 7 6 6 3 1 1 2 3 3 3 3 3 3 2 1 2 2 2 3 5 4 4 5 5 5 6 6 7 6 6 5 4 3 4 4 4 4 3 4 3 3 3 3 3
5 5 4 4 4 3 4 5 2 2 4 6 5 5 5 4 3 3 2 1 1 1 2 3 4 4 4 4 5 5 5 4 4 5 5 5 4 4 5 4 4 4 4 4 4 3 3 3 3
4 6 4 3 3 3 4 3 1 4 6 6 5 5 4 4 3 3 3 2 1 1 1 3 4 3 4 4 4 5 5 5 4 5 5 4 4 4 5 5 4 4 4 4 4 3 3 3 3
4 3 1 3 3 4 3 2 1 2 3 3 4 4 4 4 3 3 3 3 2 0 0 1 2 3 3 3 3 4 4 4 4 4 5 5 5 5 6 5 5 5 4 4 4 3 4 4 3
2 2 2 3 3 2 2 1 4 3 2 3 3 4 4 4 3 3 3 3 2 2 1 1 1 1 2 3 2 3 4 4 4 4 5 5 5 5 6 6 5 5 4 4 4 4 4 4 4
1 1 0 1 2 2 1 1 5 6 5 4 5 5 5 4 4 4 3 4 3 3 2 1 1 0 1 2 2 3 4 4 4 4 4 5 5 5 5 5 5 5 4 4 5 5 5 5 5
Wind_Direction
285 261 253 247 240 231 239 242 248 212 61 42 29 18 8 16 43 104 122 92 106 120 128 134 130 128 126 123 122 121 120 119 118 118 117 115 115 114 112 110 107 105 101 98 96 94 92 91 92
283 267 255 234 236 233 237 225 236 181 88 66 46 13 16 56 73 100 106 99 113 121 127 130 128 128 127 124 122 123 124 123 121 120 118 115 112 109 106 104 106 104 101 97 96 95 92 90 92
267 258 247 227 230 234 250 223 126 85 85 106 121 27 15 65 90 98 106 115 114 116 121 125 127 126 127 125 124 122 122 123 123 120 119 116 113 109 104 98 99 101 100 97 94 95 94 91 94
248 225 244 243 244 245 263 345 74 100 103 141 151 124 86 46 67 99 113 120 116 113 115 126 128 127 125 123 124 124 124 125 123 121 120 117 115 111 106 99 94 97 100 100 99 99 98 95 94
240 236 229 236 244 251 262 271 103 164 167 180 196 147 103 85 86 100 112 117 112 112 115 129 130 128 126 125 126 126 125 126 125 124 123 120 117 114 108 102 98 99 101 103 104 102 100 97 92
231 230 233 235 240 240 238 226 168 220 204 171 176 182 113 112 111 114 110 109 108 111 117 128 132 130 128 127 126 125 126 126 125 125 124 122 119 116 110 105 104 103 105 108 104 103 102 99 95
245 237 243 251 253 246 229 183 196 211 226 186 149 149 126 122 122 121 117 113 108 112 118 128 136 135 133 130 129 128 128 126 125 124 119 115 116 115 113 109 108 109 109 111 109 109 107 106 99
262 266 247 246 251 255 242 168 166 251 247 184 142 164 147 142 128 123 123 123 117 119 122 129 135 134 135 135 135 132 131 132 130 127 122 119 120 119 118 114 112 114 111 114 115 115 112 106 102
260 246 243 240 247 252 178 183 164 49 303 277 104 71 107 125 129 132 133 130 128 126 125 127 129 130 133 141 143 139 136 139 139 136 138 135 133 126 117 116 111 116 117 119 120 121 120 115 108
217 234 237 263 292 302 336 223 187 171 228 218 141 102 122 133 146 155 157 157 155 148 137 130 132 133 136 140 136 146 145 147 149 144 146 143 123 121 121 120 126 130 130 130 132 133 137 138 144
213 235 250 269 293 319 314 279 255 221 231 218 188 166 156 159 168 174 171 166 162 154 147 136 136 134 134 131 139 141 139 147 152 155 153 137 126 126 124 129 137 140 140 137 140 147 159 146 133
235 244 254 268 288 296 282 270 257 242 243 256 200 162 162 173 185 186 180 168 155 152 156 146 139 135 134 132 136 134 127 130 134 141 142 135 131 131 131 130 135 139 135 137 152 158 147 143 133
234 244 250 260 267 263 268 260 260 252 258 274 251 173 176 191 193 190 180 168 157 159 159 151 142 143 142 135 142 133 130 134 134 136 142 131 131 133 128 124 123 125 128 144 150 143 141 137 109
248 252 252 250 250 250 249 253 242 239 227 230 221 198 197 198 194 186 179 177 172 164 159 151 146 146 147 146 146 137 134 133 126 128 137 134 129 127 128 123 121 125 126 125 128 123 129 122 105
262 265 260 242 232 230 241 252 233 231 222 221 217 205 201 202 192 188 182 176 171 163 155 157 157 153 154 151 153 143 141 137 133 135 134 130 124 128 130 128 130 136 130 124 106 104 98 100 94
244 241 245 229 211 204 208 251 242 213 209 219 217 211 203 200 190 184 176 168 167 162 158 161 163 158 159 152 152 143 140 136 137 140 141 145 140 135 130 132 142 146 132 127 125 123 110 102 97
225 234 239 238 204 197 210 249 247 216 214 220 218 213 205 195 194 188 172 162 164 167 163 160 154 157 160 153 149 143 140 137 136 137 143 149 146 145 137 139 152 148 130 130 146 117 123 118 109
223 236 247 241 212 216 226 246 253 248 234 229 218 210 200 193 197 184 165 161 161 163 161 162 158 158 159 150 142 135 131 136 134 140 144 146 151 153 143 146 154 147 136 139 139 135 121 117 121
257 260 260 259 244 234 239 250 251 248 242 235 224 210 202 198 186 165 156 154 156 160 163 166 164 164 159 160 160 158 160 158 152 150 147 143 152 157 150 151 153 156 154 158 149 138 132 126 114
256 260 266 277 265 258 260 260 253 241 233 223 214 204 186 178 179 161 156 162 167 173 175 172 171 168 167 168 166 160 154 159 158 159 152 153 155 163 158 154 160 156 150 152 148 137 135 142 133
253 253 259 271 286 259 269 271 243 236 234 225 208 193 174 173 182 175 171 169 166 175 182 182 176 170 169 163 154 149 141 141 153 161 164 166 161 166 158 157 155 155 155 162 160 158 146 161 173
258 260 268 266 263 253 221 273 251 225 221 217 201 183 170 170 175 177 172 171 174 183 180 179 175 171 173 169 168 171 172 171 171 165 166 168 160 162 162 158 159 159 157 166 173 162 155 155 174
265 300 276 253 248 256 235 244 265 203 222 212 191 181 176 173 175 172 166 171 173 174 170 172 169 173 177 178 175 175 181 173 154 157 161 165 164 168 169 160 164 166 164 168 170 161 165 163 170
264 284 281 256 232 240 221 215 261 216 220 206 171 155 145 119 94 104 105 124 149 153 159 163 165 174 178 179 178 181 183 173 164 165 167 171 171 171 172 165 169 170 168 169 173 175 171 169 167
226 211 238 220 214 231 207 201 232 214 143 111 113 105 96 89 75 68 81 97 120 150 161 165 167 174 179 180 181 184 186 179 176 173 171 172 175 173 181 174 174 172 171 166 164 169 175 168 166
228 216 214 222 230 247 204 205 203 83 68 59 64 71 67 67 65 59 65 78 119 136 166 167 170 173 176 180 184 182 184 181 180 173 168 174 179 179 180 177 175 170 169 167 165 169 175 163 165
238 229 255 276 283 271 223 181 161 58 53 42 42 50 46 51 52 43 32 29 76 120 182 170 170 173 177 186 186 180 182 180 175 168 163 168 169 173 175 173 171 170 169 170 168 172 175 165 168
263 272 250 220 232 243 246 213 251 23 28 34 26 19 18 38 34 31 25 12 9 52 139 132 146 172 176 186 191 178 174 176 172 168 167 165 166 168 168 170 170 168 168 172 169 169 172 165 170
281 269 258 245 253 248 262 317 21 37 58 47 19 16 15 20 18 19 14 3 5 34 65 107 120 158 173 178 181 170 167 167 167 172 168 163 162 165 168 169 170 166 168 171 166 167 170 169 170
344 302 287 227 273 277 283 300 14 26 38 39 20 15 9 9 12 17 14 8 15 27 25 54 61 124 177 165 172 173 166 168 168 168 166 162 164 168 169 166 166 167 166 168 171 174 176 174 177